Time,TemperatureF,DewpointF,PressureIn,WindDirection,WindDirectionDegrees,WindSpeedMPH,WindSpeedGustMPH,Humidity,HourlyPrecipIn,Conditions,Clouds,dailyrainin,SoftwareType,DateUTC
2013-03-16 00:03:00,48.7,47.0,30.10,NNE,13,0.0,3.0,93,0.00,,,0.00,weatherlink.com 1.10,2013-03-16 07:03:00,
2013-03-16 00:18:00,49.0,47.0,30.10,NNE,22,2.0,3.0,92,0.00,,,0.00,weatherlink.com 1.10,2013-03-16 07:18:00,
2013-03-16 00:33:00,48.9,47.0,30.10,NNE,24,0.0,5.0,92,0.00,,,0.00,weatherlink.com 1.10,2013-03-16 07:33:00,
2013-03-16 00:48:00,48.7,47.0,30.09,NNE,16,0.0,2.0,92,0.00,,,0.00,weatherlink.com 1.10,2013-03-16 07:48:00,
2013-03-16 01:03:00,48.7,46.0,30.10,NNE,28,0.0,3.0,91,0.00,,,0.00,weatherlink.com 1.10,2013-03-16 08:03:00,
2013-03-16 01:18:00,47.9,46.0,30.10,NNE,26,0.0,2.0,92,0.00,,,0.00,weatherlink.com 1.10,2013-03-16 08:18:00,
2013-03-16 01:33:00,47.7,46.0,30.09,NNE,20,0.0,3.0,92,0.00,,,0.00,weatherlink.com 1.10,2013-03-16 08:33:00,
2013-03-16 01:48:00,47.5,46.0,30.10,NNE,25,0.0,2.0,93,0.00,,,0.00,weatherlink.com 1.10,2013-03-16 08:48:00,
2013-03-16 02:03:00,47.8,46.0,30.09,NNE,33,0.0,3.0,93,0.00,,,0.00,weatherlink.com 1.10,2013-03-16 09:03:00,
2013-03-16 02:18:00,47.3,45.0,30.09,NNE,24,0.0,4.0,93,0.00,,,0.00,weatherlink.com 1.10,2013-03-16 09:18:00,
2013-03-16 02:33:00,47.3,45.0,30.09,NNE,28,0.0,3.0,93,0.00,,,0.00,weatherlink.com 1.10,2013-03-16 09:33:00,
2013-03-16 02:48:00,47.0,45.0,30.09,NNE,28,0.0,5.0,93,0.00,,,0.00,weatherlink.com 1.10,2013-03-16 09:48:00,
2013-03-16 03:04:00,46.5,45.0,30.10,NE,37,0.0,2.0,94,0.00,,,0.00,weatherlink.com 1.10,2013-03-16 10:04:00,
2013-03-16 03:19:00,46.2,45.0,30.10,NNE,28,0.0,4.0,94,0.00,,,0.00,weatherlink.com 1.10,2013-03-16 10:19:00,
2013-03-16 03:34:00,46.1,45.0,30.11,NNE,26,0.0,3.0,94,0.00,,,0.00,weatherlink.com 1.10,2013-03-16 10:34:00,
2013-03-16 03:49:00,46.4,45.0,30.10,NE,46,0.0,6.0,94,0.00,,,0.00,weatherlink.com 1.10,2013-03-16 10:49:00,
2013-03-16 04:04:00,46.3,44.0,30.09,NNE,28,0.0,6.0,93,0.00,,,0.00,weatherlink.com 1.10,2013-03-16 11:04:00,
2013-03-16 04:19:00,46.3,44.0,30.07,NE,34,1.0,6.0,93,0.00,,,0.00,weatherlink.com 1.10,2013-03-16 11:19:00,
2013-03-16 04:34:00,46.6,45.0,30.07,NE,48,0.0,6.0,93,0.00,,,0.00,weatherlink.com 1.10,2013-03-16 11:34:00,
2013-03-16 04:49:00,46.0,44.0,30.08,NNE,16,0.0,0.0,93,0.00,,,0.00,weatherlink.com 1.10,2013-03-16 11:49:00,
2013-03-16 05:04:00,46.4,44.0,30.07,NNE,24,1.0,4.0,92,0.00,,,0.00,weatherlink.com 1.10,2013-03-16 12:04:00,
2013-03-16 05:19:00,47.3,44.0,30.08,NNE,25,1.0,4.0,88,0.00,,,0.00,weatherlink.com 1.10,2013-03-16 12:19:00,
2013-03-16 05:34:00,48.1,44.0,30.08,NE,38,0.0,4.0,85,0.00,,,0.00,weatherlink.com 1.10,2013-03-16 12:34:00,
2013-03-16 05:49:00,48.2,44.0,30.08,NNE,30,0.0,3.0,84,0.00,,,0.00,weatherlink.com 1.10,2013-03-16 12:49:00,
2013-03-16 06:04:00,47.7,43.0,30.08,NNE,24,2.0,7.0,85,0.00,,,0.00,weatherlink.com 1.10,2013-03-16 13:04:00,
2013-03-16 06:19:00,46.9,43.0,30.09,NNE,24,3.0,7.0,86,0.00,,,0.00,weatherlink.com 1.10,2013-03-16 13:19:00,
2013-03-16 06:34:00,46.0,43.0,30.09,NNE,23,0.0,5.0,88,0.00,,,0.00,weatherlink.com 1.10,2013-03-16 13:34:00,
2013-03-16 06:49:00,45.1,42.0,30.09,NNE,28,0.0,2.0,90,0.00,,,0.00,weatherlink.com 1.10,2013-03-16 13:49:00,
2013-03-16 07:04:00,45.3,43.0,30.09,NNE,13,0.0,4.0,91,0.00,,,0.00,weatherlink.com 1.10,2013-03-16 14:04:00,
2013-03-16 07:19:00,45.3,43.0,30.10,NE,40,1.0,3.0,92,0.00,,,0.00,weatherlink.com 1.10,2013-03-16 14:19:00,
2013-03-16 07:34:00,45.2,43.0,30.09,North,360,0.0,4.0,92,0.00,,,0.00,weatherlink.com 1.10,2013-03-16 14:34:00,
2013-03-16 07:49:00,45.4,43.0,30.09,NE,42,0.0,4.0,92,0.00,,,0.00,weatherlink.com 1.10,2013-03-16 14:49:00,
2013-03-16 08:04:00,45.4,43.0,30.09,NNE,21,0.0,2.0,91,0.00,,,0.00,weatherlink.com 1.10,2013-03-16 15:04:00,
2013-03-16 08:19:00,46.1,43.0,30.10,NNE,24,0.0,3.0,88,0.00,,,0.00,weatherlink.com 1.10,2013-03-16 15:19:00,
2013-03-16 08:34:00,47.6,44.0,30.11,NNE,22,0.0,3.0,86,0.00,,,0.00,weatherlink.com 1.10,2013-03-16 15:34:00,
2013-03-16 08:49:00,48.7,44.0,30.12,South,188,0.0,4.0,85,0.00,,,0.00,weatherlink.com 1.10,2013-03-16 15:49:00,
2013-03-16 09:04:00,48.6,45.0,30.12,SSW,199,0.0,4.0,88,0.00,,,0.00,weatherlink.com 1.10,2013-03-16 16:04:00,
2013-03-16 09:19:00,49.1,45.0,30.13,NNE,25,0.0,6.0,87,0.00,,,0.00,weatherlink.com 1.10,2013-03-16 16:19:00,
2013-03-16 09:34:00,50.5,47.0,30.13,South,184,1.0,4.0,86,0.00,,,0.00,weatherlink.com 1.10,2013-03-16 16:34:00,
2013-03-16 09:49:00,51.4,47.0,30.14,ESE,119,0.0,4.0,85,0.00,,,0.00,weatherlink.com 1.10,2013-03-16 16:49:00,
2013-03-16 10:04:00,52.5,48.0,30.13,ENE,71,1.0,6.0,84,0.00,,,0.00,weatherlink.com 1.10,2013-03-16 17:04:00,
2013-03-16 10:19:00,53.5,49.0,30.12,NNE,28,0.0,1.0,83,0.00,,,0.00,weatherlink.com 1.10,2013-03-16 17:19:00,
2013-03-16 10:34:00,55.1,49.0,30.14,SSW,211,6.0,6.0,80,0.00,,,0.00,weatherlink.com 1.10,2013-03-16 17:34:00,
2013-03-16 10:49:00,56.7,50.0,30.13,SSW,206,2.0,5.0,78,0.00,,,0.00,weatherlink.com 1.10,2013-03-16 17:49:00,
2013-03-16 11:05:00,58.5,51.0,30.13,SSW,211,3.0,5.0,75,0.00,,,0.00,weatherlink.com 1.10,2013-03-16 18:05:00,
2013-03-16 11:20:00,58.5,51.0,30.13,SSE,150,1.0,5.0,76,0.00,,,0.00,weatherlink.com 1.10,2013-03-16 18:20:00,
2013-03-16 11:35:00,60.1,51.0,30.13,SW,221,2.0,5.0,72,0.00,,,0.00,weatherlink.com 1.10,2013-03-16 18:35:00,
2013-03-16 11:50:00,59.3,51.0,30.13,South,180,0.0,7.0,75,0.00,,,0.00,weatherlink.com 1.10,2013-03-16 18:50:00,
2013-03-16 12:05:00,59.8,51.0,30.13,SW,216,5.0,7.0,73,0.00,,,0.00,weatherlink.com 1.10,2013-03-16 19:05:00,
2013-03-16 12:20:00,59.8,52.0,30.12,SW,227,6.0,7.0,74,0.00,,,0.00,weatherlink.com 1.10,2013-03-16 19:20:00,
2013-03-16 12:35:00,58.7,52.0,30.12,SSW,201,5.0,8.0,77,0.00,,,0.00,weatherlink.com 1.10,2013-03-16 19:35:00,
2013-03-16 12:50:00,60.3,52.0,30.12,South,169,2.0,7.0,75,0.00,,,0.00,weatherlink.com 1.10,2013-03-16 19:50:00,
2013-03-16 13:05:00,58.7,51.0,30.12,SSW,196,4.0,8.0,76,0.00,,,0.00,weatherlink.com 1.10,2013-03-16 20:05:00,
2013-03-16 13:20:00,60.9,53.0,30.12,ESE,117,3.0,7.0,74,0.00,,,0.00,weatherlink.com 1.10,2013-03-16 20:20:00,
2013-03-16 13:35:00,61.8,51.0,30.12,WSW,255,2.0,8.0,69,0.00,,,0.00,weatherlink.com 1.10,2013-03-16 20:35:00,
2013-03-16 13:50:00,62.7,52.0,30.12,WSW,256,4.0,7.0,67,0.00,,,0.00,weatherlink.com 1.10,2013-03-16 20:50:00,
2013-03-16 14:05:00,62.6,51.0,30.11,SSW,202,6.0,7.0,67,0.00,,,0.00,weatherlink.com 1.10,2013-03-16 21:05:00,
2013-03-16 14:20:00,62.9,52.0,30.11,SSW,207,5.0,8.0,67,0.00,,,0.00,weatherlink.com 1.10,2013-03-16 21:20:00,
2013-03-16 14:35:00,63.4,50.0,30.12,ESE,116,3.0,6.0,62,0.00,,,0.00,weatherlink.com 1.10,2013-03-16 21:35:00,
2013-03-16 14:50:00,64.4,51.0,30.11,SSE,150,3.0,6.0,62,0.00,,,0.00,weatherlink.com 1.10,2013-03-16 21:50:00,
2013-03-16 15:05:00,60.6,50.0,30.11,South,171,3.0,9.0,68,0.00,,,0.00,weatherlink.com 1.10,2013-03-16 22:05:00,
2013-03-16 15:20:00,62.4,50.0,30.11,SW,217,3.0,7.0,65,0.00,,,0.00,weatherlink.com 1.10,2013-03-16 22:20:00,
2013-03-16 15:35:00,63.0,51.0,30.11,SSW,201,5.0,8.0,66,0.00,,,0.00,weatherlink.com 1.10,2013-03-16 22:35:00,
2013-03-16 15:50:00,63.4,50.0,30.11,SSW,207,1.0,5.0,63,0.00,,,0.00,weatherlink.com 1.10,2013-03-16 22:50:00,
2013-03-16 16:05:00,63.3,50.0,30.11,SSW,201,3.0,7.0,62,0.00,,,0.00,weatherlink.com 1.10,2013-03-16 23:05:00,
2013-03-16 16:20:00,62.2,48.0,30.11,SSE,161,5.0,5.0,61,0.00,,,0.00,weatherlink.com 1.10,2013-03-16 23:20:00,
2013-03-16 16:35:00,63.0,50.0,30.10,SE,137,1.0,6.0,62,0.00,,,0.00,weatherlink.com 1.10,2013-03-16 23:35:00,
2013-03-16 16:50:00,63.3,49.0,30.10,West,268,0.0,5.0,60,0.00,,,0.00,weatherlink.com 1.10,2013-03-16 23:50:00,
2013-03-16 17:05:00,63.1,48.0,30.09,SSE,165,3.0,8.0,58,0.00,,,0.00,weatherlink.com 1.10,2013-03-17 00:05:00,
2013-03-16 17:20:00,63.1,48.0,30.10,West,280,2.0,5.0,59,0.00,,,0.00,weatherlink.com 1.10,2013-03-17 00:20:00,
2013-03-16 17:35:00,62.5,48.0,30.10,ESE,110,0.0,5.0,59,0.00,,,0.00,weatherlink.com 1.10,2013-03-17 00:35:00,
2013-03-16 17:50:00,62.2,48.0,30.10,South,191,3.0,4.0,60,0.00,,,0.00,weatherlink.com 1.10,2013-03-17 00:50:00,
2013-03-16 18:05:00,62.2,48.0,30.10,SSE,159,1.0,2.0,60,0.00,,,0.00,weatherlink.com 1.10,2013-03-17 01:05:00,
2013-03-16 18:20:00,61.7,49.0,30.10,ENE,59,0.0,4.0,63,0.00,,,0.00,weatherlink.com 1.10,2013-03-17 01:20:00,
2013-03-16 18:35:00,58.8,48.0,30.10,North,5,0.0,3.0,67,0.00,,,0.00,weatherlink.com 1.10,2013-03-17 01:35:00,
2013-03-16 18:50:00,56.8,47.0,30.10,North,5,0.0,1.0,71,0.00,,,0.00,weatherlink.com 1.10,2013-03-17 01:50:00,
2013-03-16 19:05:00,55.3,47.0,30.11,East,92,0.0,2.0,74,0.00,,,0.00,weatherlink.com 1.10,2013-03-17 02:05:00,
2013-03-16 19:20:00,54.0,46.0,30.11,ENE,63,0.0,2.0,74,0.00,,,0.00,weatherlink.com 1.10,2013-03-17 02:20:00,
2013-03-16 19:35:00,52.9,46.0,30.11,SSW,212,0.0,1.0,76,0.00,,,0.00,weatherlink.com 1.10,2013-03-17 02:35:00,
2013-03-16 19:50:00,52.1,45.0,30.11,ESE,113,0.0,1.0,77,0.00,,,0.00,weatherlink.com 1.10,2013-03-17 02:50:00,
2013-03-16 20:05:00,51.0,45.0,30.12,SE,144,0.0,0.0,80,0.00,,,0.00,weatherlink.com 1.10,2013-03-17 03:05:00,
2013-03-16 20:20:00,50.3,45.0,30.12,SW,234,0.0,3.0,81,0.00,,,0.00,weatherlink.com 1.10,2013-03-17 03:20:00,
2013-03-16 20:35:00,49.8,45.0,30.12,NNE,22,0.0,2.0,82,0.00,,,0.00,weatherlink.com 1.10,2013-03-17 03:35:00,
2013-03-16 20:50:00,49.5,45.0,30.13,NE,50,0.0,1.0,83,0.00,,,0.00,weatherlink.com 1.10,2013-03-17 03:50:00,
2013-03-16 21:05:00,49.4,44.0,30.14,NE,55,0.0,0.0,83,0.00,,,0.00,weatherlink.com 1.10,2013-03-17 04:05:00,
2013-03-16 21:20:00,49.1,44.0,30.15,NNE,16,0.0,0.0,83,0.00,,,0.00,weatherlink.com 1.10,2013-03-17 04:20:00,
2013-03-16 21:35:00,48.4,44.0,30.16,NNE,28,0.0,1.0,85,0.00,,,0.00,weatherlink.com 1.10,2013-03-17 04:35:00,
2013-03-16 21:50:00,47.9,44.0,30.17,NNE,18,0.0,1.0,86,0.00,,,0.00,weatherlink.com 1.10,2013-03-17 04:50:00,
2013-03-16 22:05:00,47.7,44.0,30.17,NNE,26,0.0,2.0,87,0.00,,,0.00,weatherlink.com 1.10,2013-03-17 05:05:00,
2013-03-16 22:20:00,47.4,44.0,30.18,NNE,25,0.0,1.0,88,0.00,,,0.00,weatherlink.com 1.10,2013-03-17 05:20:00,
2013-03-16 22:35:00,47.4,44.0,30.18,NNE,26,0.0,2.0,88,0.00,,,0.00,weatherlink.com 1.10,2013-03-17 05:35:00,
2013-03-16 22:50:00,47.4,44.0,30.18,NNE,29,0.0,3.0,88,0.00,,,0.00,weatherlink.com 1.10,2013-03-17 05:50:00,
2013-03-16 23:05:00,47.1,44.0,30.19,NNE,30,0.0,0.0,89,0.00,,,0.00,weatherlink.com 1.10,2013-03-17 06:05:00,
2013-03-16 23:20:00,47.0,44.0,30.19,NNE,29,0.0,4.0,90,0.00,,,0.00,weatherlink.com 1.10,2013-03-17 06:20:00,
2013-03-16 23:35:00,46.9,44.0,30.19,NNE,30,0.0,3.0,90,0.00,,,0.00,weatherlink.com 1.10,2013-03-17 06:35:00,
2013-03-16 23:51:00,47.0,45.0,30.19,NNE,30,1.0,5.0,91,0.00,,,0.00,weatherlink.com 1.10,2013-03-17 06:51:00,